Location: *
(46.1833°N, 22.7667°E)
Time: 21:01:35
(UTC+00:00)

ASTEX 1 - Pass Details

Date: 17 September 2019
Orbit: 719 x 745 km, 92.7° (Epoch: 13 October)

Event Time Altitude Azimuth Distance (km) Brightness Sun altitude
Rises 18:04:33 0° 5° (N) 3,145 6.9 -15.6°
Reaches altitude 10° 18:06:51 10° 5° (N) 2,218 6.1 -15.9°
Maximum altitude 18:11:46 87° 278° (W) 728 3.4 -16.7°
Drops below altitude 10° 18:16:38 10° 189° (S) 2,201 5.7 -17.5°
Sets 18:18:54 0° 189° (S) 3,118 6.5 -17.9°
